Location: Skymont Scout Reservation
(35.4344°N, 85.8742°W)
Time: 10:34:06
(UTC-05:00)

ISS - All Passes

Search period start: 27 April 2015 00:00
Search period end: 07 May 2015 00:00
Orbit: 395 x 402 km, 51.6° (Epoch: 27 April)

Date Brightness Start Highest point End Pass type
(mag) Time Alt. Az. Time Alt. Az. Time Alt. Az.
27 Apr - 10:34:09 10° SSW 10:37:13 41° SE 10:40:19 10° ENE daylight
27 Apr - 12:11:18 10° WNW 12:13:43 19° NNW 12:16:07 10° NNE daylight
27 Apr - 17:04:25 10° NNW 17:06:36 17° NNE 17:08:49 10° ENE daylight
27 Apr - 18:39:59 10° WNW 18:43:11 52° SW 18:46:20 10° SSE daylight
28 Apr - 09:40:52 10° S 09:43:11 19° SE 09:45:35 10° E daylight
28 Apr - 11:16:24 10° WSW 11:19:23 33° NW 11:22:23 10° NNE daylight
28 Apr - 16:11:19 10° N 16:12:07 11° NNE 16:13:00 10° NE daylight
28 Apr - 17:45:47 10° NW 17:49:02 66° NE 17:52:15 10° SE daylight
29 Apr - 10:21:53 10° SW 10:25:07 72° NW 10:28:22 10° NE daylight
29 Apr - 12:00:54 10° NW 12:01:59 11° NNW 12:03:01 10° N daylight
29 Apr - 16:51:48 10° NNW 16:54:44 31° NE 16:57:41 10° E daylight
29 Apr - 18:28:27 10° W 18:30:58 20° SW 18:33:25 10° S daylight
30 Apr - 09:27:48 10° SSW 09:30:54 47° SE 09:34:03 10° ENE daylight
30 Apr - 11:05:09 10° WNW 11:07:27 18° NNW 11:09:43 10° NNE daylight
30 Apr - 15:58:00 10° NNW 16:00:17 18° NNE 16:02:38 10° ENE daylight
30 Apr - 17:33:41 10° WNW 17:36:49 46° SW 17:39:56 10° SSE daylight
01 May - 08:34:16 10° S 08:36:44 21° SE 08:39:17 10° E daylight
01 May - 10:10:03 10° W 10:12:58 30° NW 10:15:54 10° NNE daylight
01 May - 15:04:37 10° N 15:05:42 11° NNE 15:06:52 10° NE daylight
01 May - 16:39:19 10° NW 16:42:34 74° NE 16:45:48 10° SE daylight
02 May - 09:15:22 10° WSW 09:18:34 64° NW 09:21:48 10° NE daylight
02 May - 10:54:43 10° NW 10:55:28 11° NNW 10:56:10 10° N daylight
02 May - 15:45:10 10° NNW 15:48:10 34° NE 15:51:10 10° ESE daylight
02 May - 17:21:59 10° W 17:24:21 18° SW 17:26:38 10° S daylight
03 May - 08:21:05 10° SSW 08:24:13 53° SE 08:27:24 10° ENE daylight
03 May - 09:58:37 10° WNW 10:00:48 16° NNW 10:02:57 10° NNE daylight
03 May - 14:51:13 10° NNW 14:53:37 19° NNE 14:56:03 10° E daylight
03 May - 16:27:01 10° WNW 16:30:06 41° SW 16:33:09 10° SSE daylight
04 May - 07:27:21 10° S 07:29:56 23° SE 07:32:35 10° ENE daylight
04 May - 09:03:20 10° W 09:06:11 28° NW 09:09:03 10° NNE daylight
04 May - 13:57:37 10° N 13:58:55 12° NNE 14:00:17 10° NE daylight
04 May - 15:32:28 10° NW 15:35:44 82° NE 15:38:58 10° SE daylight
05 May - 06:35:10 10° SE 06:35:39 10° SE 06:36:17 10° ESE daylight
05 May - 08:08:28 10° WSW 08:11:39 57° NW 08:14:51 10° NE daylight
05 May - 14:38:11 10° NNW 14:41:13 36° NE 14:44:16 10° ESE daylight
05 May - 16:15:10 10° W 16:17:21 17° SW 16:19:29 10° S daylight
06 May - 07:14:01 10° SW 07:17:10 59° SE 07:20:22 10° NE daylight
06 May - 08:51:43 10° WNW 08:53:47 15° NNW 08:55:48 10° N daylight
06 May - 13:44:04 10° NNW 13:46:34 20° NNE 13:49:05 10° E daylight
06 May - 15:19:58 10° WNW 15:23:00 37° SW 15:26:00 10° SSE daylight
